Regional Weather Roundup
Issued by NWS

Home | Current Version | Previous Version | Graphics & Text | Print | Product List | Glossary On
Versions: 1 2 3 4 5 6 7 8 9 10 11 12 13 14 15 16 17 18 19 20 21 22 23 24 25 26 27
000
ASUS45 KBOU 160707
RWRCO

WEATHER ROUNDUP FOR COLORADO
NATIONAL WEATHER SERVICE DENVER/BOULDER CO
100 AM MDT WED AUG 16 2017

NOTE: "FAIR" INDICATES FEW OR NO CLOUDS BELOW 12000 FEET WITH NO
SIGNIFICANT WEATHER AND/OR OBSTRUCTIONS TO VISIBILITY.

COZ001>005-013-030-031-160800-
...NORTHWEST COLORADO...

CITY           SKY/WX    TMP DP  RH WIND       PRES   REMARKS
CRAIG          FAIR      46  43  89 SE3       30.15S
HAYDEN         FAIR      50  46  87 SE7       30.19S
MEEKER         MOCLDY    52  48  86 NE5       30.15R
RABBIT EARS PA FAIR      37  37 100 W7        30.35S
STEAMBOAT SPGS FAIR      49  47  94 CALM      30.18S
WALDEN         NOT AVBL
$$

COZ006>008-011-160800-
...WEST CENTRAL VALLEYS...

CITY           SKY/WX    TMP DP  RH WIND       PRES   REMARKS
GRAND JUNCTION FAIR      65  46  50 CALM      30.03R
MONTROSE       FAIR      60  37  42 SE5       30.11R
EAGLE          LGT RAIN  60  43  53 E3        30.18R
RIFLE          CLOUDY    63  45  51 E3        30.09S
DELTA          NOT AVBL
NUCLA          FAIR      57  30  35 SE8       30.14S
$$

COZ017>023-064>068-160800-
...SOUTHWEST COLORADO...

CITY           SKY/WX    TMP DP  RH WIND       PRES   REMARKS
DURANGO        MOCLDY    54  34  46 N5        30.16R
CORTEZ         FAIR      50  36  58 E6        30.11R
PAGOSA SPRINGS CLOUDY    55  29  37 CALM      30.22S
TELLURIDE      NOT AVBL
WOLF CREEK PAS FAIR      37  27  65 SW6       30.49S
$$

COZ009-010-012-014-032>034-037-058>063-160800-
...CENTRAL COLORADO...

CITY           SKY/WX    TMP DP  RH WIND       PRES   REMARKS
ASPEN          CLOUDY    53  38  56 S5        30.20R
BUENA VISTA    FAIR      58  27  31 CALM      30.19R
COPPER MTN     CLOUDY    43  30  61 W12       30.43S
BERTHOUD PASS  HAZE      32  28  86 NW24G33   30.43R VSB 1/2 WCI  19
COTTONWOOD PAS CLOUDY    55  21  26 NW8G22    30.30R
GUNNISON       CLOUDY    51  39  63 CALM      30.21S
KREMMLING      CLOUDY    55  45  67 CALM      30.22S
LEADVILLE      CLOUDY    45  30  55 NE5       30.31R
MONARCH PASS   CLOUDY    39  27  60 W18G26    30.53R
SALIDA         FAIR      62  30  29 W10       30.24R
SUNLIGHT       CLOUDY    41  34  75 W7        30.40S
WILKERSON PASS FAIR      45  23  42 NW6       30.40S
$$

COZ069>075-160800-
...SAN LUIS VALLEY/SANGRE DE CRISTO MOUNTAINS...

CITY           SKY/WX    TMP DP  RH WIND       PRES   REMARKS
ALAMOSA        FAIR      56  36  47 CALM      30.18R
DEL NORTE      MOCLDY    58  30  35 W9        30.21R
LA VETA PASS   NOT AVBL
SAGUACHE       MOCLDY    55  32  41 NW10      30.21R
$$

COZ035-036-038>040-160800-
...NORTHERN COLORADO FRONT RANGE...

CITY           SKY/WX    TMP DP  RH WIND       PRES   REMARKS
DENVER INTL AP MOCLDY    58  53  84 SW12      30.05S
DMNS CITY PARK   N/A     58  55  91 E8        30.05S
AURORA         CLOUDY    56  53  89 S8        30.07F
FRONT RANGE AP FAIR      59  54  82 S6        30.07R
ERIE MUNI ARPT FAIR      58  54  87 CALM      30.07S
BOULDER MUN AP FAIR      59  52  77 CALM      30.03S
CENTENNIAL     MOCLDY    56  51  84 S6        30.07F
BROOMFIELD     NOT AVBL
FORT COLLINS   FAIR      59  54  83 S5        30.04R
LONGMONT       FAIR      60  54  80 CALM      30.04S
$$

COZ041-046-047-076>085-087-088-160800-
...PIKES PEAK/PALMER DIVIDE AND SOUTHERN FOOTHILLS...

CITY           SKY/WX    TMP DP  RH WIND       PRES   REMARKS
COLO. SPRINGS  MOCLDY    59  49  69 NW15      30.10R
A. F. ACADEMY  FAIR      55  48  78 N10       30.11S
SCHRIEVER AFB  MOCLDY    56  48  74 N18       30.07S
CHEYENNE MTN   MOCLDY    59  44  57 NW15      30.07R
ELLICOTT       FAIR     N/A N/A N/A N18       30.05F
FALCON         FAIR      53  48  82 N14G20    30.12S
FORT CARSON    FAIR      60  47  62 N15       30.06R
LIMON          CLOUDY    58  51  78 N22G29    30.01F
MONUMENT HILL  FAIR      48  46  93 W6        30.14F
CANON CITY     CLEAR     64  54  68 S9        30.03R
WALSENBURG     FAIR      61  50  67 N9        30.09R
TRINIDAD       FAIR      63  49  60 NW10G18   30.03R
$$

COZ042>045-048>051-090-091-160800-
...NORTHEAST COLORADO...

CITY           SKY/WX    TMP DP  RH WIND       PRES   REMARKS
GREELEY ARPT   FAIR      58  56  93 W3        30.03R
AKRON          CLOUDY    60  52  74 NW9       29.97F
BURLINGTON     FAIR      61  58  90 N12       29.96R
WRAY           NOT AVBL
YUMA           PTSUNNY   59  54  82 N5        29.94R
STERLING       FAIR      63  54  72 NE7       29.96R
HOLYOKE        FAIR      63  59  88 NE5       29.96R
FORT MORGAN    FAIR      60  51  72 W8        30.02R
$$

COZ086-089-092>099-160800-
...SOUTHEAST COLORADO...

CITY           SKY/WX    TMP DP  RH WIND       PRES   REMARKS
PUEBLO         MOCLDY    65  50  58 N20G28    29.98R
LA JUNTA       FAIR      65  52  62 N10       29.96R
LAMAR          FAIR      66  54  65 NE10      29.89R
SPRINGFIELD      N/A     68  60  75 S12       29.91R
$$




USA.gov is the U.S. government's official web portal to all federal, state and local government web resources and services.